Kuwait, Kuwait

10:03 PM +03 on December 17, 2017 (GMT +0300)
Kuwait International

Weather History for OKBK - November, 2013

Change the Weather History Date:

Thursday, November 21, 2013

  Actual Average Record
Temperature  
Mean Temperature 66 °F -  
Max Temperature 71 °F 72 °F 93 °F (2007)
Min Temperature 62 °F 50 °F 35 °F (2001)
Cooling Degree Days 2    
Growing Degree Days 16 (Base 50)    
Moisture  
Dew Point 59 °F    
Average Humidity 77    
Maximum Humidity 94    
Minimum Humidity 46    
Precipitation  
Precipitation 0.00 in 0.02 in - ()
Sea Level Pressure  
Sea Level Pressure 29.87 in    
Wind  
Wind Speed 7 mph ()    
Max Wind Speed 13 mph    
Max Gust Speed -    
Visibility 5.3 miles    
Events      
Averages and records for this station are not official NWS values.
T = Trace of Precipitation, MM = Missing Value Source: Averaged Metar Reports

Daily Weather History Graph

Daily Weather History Graph

Search for Another Location

Airport or City:

Trip Planner

Search our weather history database for the weather conditions in past years. The results will help you decide how hot, cold, wet, or windy it might be!

Date:

Astronomy

Nov. 21, 2013 Rise Set
Actual Time 6:16 AM +03 4:51 PM +03
Civil Twilight 5:51 AM +03 5:16 PM +03
Nautical Twilight 5:22 AM +03 5:45 PM +03
Astronomical Twilight 4:53 AM +03 6:13 PM +03
Moon 8:05 PM +03 (11/21) 9:08 AM +03 (11/21)
Length of Visible Light 11h 25m
Length of Day
10h 34m
Waning Gibbous, 87% of the Moon is Illuminated
Nov 21
Waning Gibbous
Nov 25
Last Quarter
Dec 3
New
Dec 9
First Quarter
Dec 17
Full

Hourly Weather History & Observations

Time (+03) Temp. Dew Point Humidity Pressure Visibility Wind Dir Wind Speed Gust Speed Precip Events Conditions
12:00 AM 65 °F 62 °F 88% 29.94 in 6 mi NW 5.8 mph - -   Scattered Clouds
12:00 AM 64.4 °F 62.6 °F 94% 29.92 in 6.2 mi NW 5.8 mph - N/A   Scattered Clouds
1:00 AM 64.4 °F 62.6 °F 94% 29.92 in 4.3 mi WNW 5.8 mph - N/A   Scattered Clouds
2:00 AM 64.4 °F 60.8 °F 88% 29.92 in 4.3 mi NW 5.8 mph - N/A   Scattered Clouds
3:00 AM 64 °F 61 °F 87% 29.91 in 4 mi WNW 9.2 mph - -   Mist
3:00 AM 64.4 °F 60.8 °F 88% 29.92 in 4.3 mi WNW 9.2 mph - N/A   Mostly Cloudy
4:00 AM 64.4 °F 60.8 °F 88% 29.89 in 5.0 mi NNW 9.2 mph - N/A   Mostly Cloudy
5:00 AM 62.6 °F 60.8 °F 94% 29.89 in 5.0 mi NW 8.1 mph - N/A   Mostly Cloudy
6:00 AM 64 °F 61 °F 86% 29.89 in 5 mi North 5.8 mph - -   Mist
6:00 AM 64.4 °F 60.8 °F 88% 29.89 in 5.0 mi North 5.8 mph - N/A   Mostly Cloudy
6:30 AM 62.6 °F 60.8 °F 94% 29.89 in 2.5 mi NW 6.9 mph - N/A   Scattered Clouds
7:00 AM 62.6 °F 60.8 °F 94% 29.89 in 2.5 mi NW 8.1 mph - N/A   Scattered Clouds
8:00 AM 64.4 °F 60.8 °F 88% 29.92 in 4.3 mi NW 9.2 mph - N/A   Scattered Clouds
9:00 AM 66 °F 60 °F 77% 29.92 in 6 mi NW 11.5 mph - -   Mostly Cloudy
9:00 AM 66.2 °F 60.8 °F 83% 29.92 in 6.2 mi NW 11.5 mph - N/A   Scattered Clouds
1:30 PM 71.6 °F 57.2 °F 60% 29.83 in 6.2 mi NNW 11.5 mph - N/A   Mostly Cloudy
2:00 PM 71.6 °F 57.2 °F 60% 29.80 in 6.2 mi North 11.5 mph - N/A   Mostly Cloudy
3:00 PM 71 °F 54 °F 46% 29.81 in 6 mi NNW 11.5 mph - -   Partly Cloudy
3:00 PM 71.6 °F 55.4 °F 57% 29.80 in 6.2 mi NNW 11.5 mph - N/A   Mostly Cloudy
4:00 PM 69.8 °F 53.6 °F 56% 29.80 in 6.2 mi NNW 12.7 mph - N/A   Scattered Clouds
5:00 PM 68.0 °F 55.4 °F 64% 29.83 in 6.2 mi North 9.2 mph - N/A   Mostly Cloudy
6:00 PM 68 °F 56 °F 58% 29.83 in 6 mi North 8.1 mph - -   Scattered Clouds
6:00 PM 68.0 °F 57.2 °F 68% 29.83 in 6.2 mi North 8.1 mph - N/A   Mostly Cloudy
7:00 PM 66.2 °F 57.2 °F 73% 29.83 in 6.2 mi North 8.1 mph - N/A   Scattered Clouds
8:00 PM 66.2 °F 57.2 °F 73% 29.86 in 6.2 mi North 9.2 mph - N/A   Scattered Clouds
9:00 PM 65 °F 57 °F 68% 29.86 in 6 mi North 9.2 mph - -   Partly Cloudy
9:00 PM 66.2 °F 57.2 °F 73% 29.86 in - North 9.2 mph - N/A   Clear
10:00 PM 64.4 °F 57.2 °F 77% 29.86 in - North 9.2 mph - N/A   Clear
11:00 PM 64.4 °F 57.2 °F 77% 29.86 in - North 11.5 mph - N/A   Clear